FW5669 Weather Reports


Display with metric or nautical units.
time (UTC)temp
F
wind
direction
speed
MPH
gust
MPH
rain 1hr
in
rain 24hr
in
rain mn
in
humidity
%
barometer
mb
20260831010005 85 246 1.0 4.0 0.00 0.00 0.00 24 1011.7
20260831004503 85 327 0.0 3.0 0.00 0.00 0.00 24 1011.8
20260831003002 85 190 2.0 4.0 0.00 0.00 0.00 24 1012.0
20260831001502 86 177 0.0 4.0 0.00 0.00 0.00 25 1012.1
20260831000002 87 94 0.0 4.0 0.00 0.00 0.00 24 1012.1
20260830234506 87 240 1.0 4.0 0.00 0.00 0.00 23 1012.2
20260830233104 87 300 1.0 4.0 0.00 0.00 0.00 23 1012.2
20260830231503 87 189 2.0 6.0 0.00 0.00 0.00 23 1012.3
20260830230001 87 83 1.0 6.0 0.00 0.00 0.00 25 1012.4
20260830224602 88 162 2.0 7.0 0.00 0.00 0.00 25 1012.4
20260830224502 88 170 1.0 3.0 0.00 0.00 0.00 26 1012.4
20260830223108 88 198 1.0 7.0 0.00 0.00 0.00 26 1012.6
20260830223002 87 223 1.0 7.0 0.00 0.00 0.00 27 1012.6
20260830221502 87 125 2.0 6.0 0.00 0.00 0.00 27 1012.9
20260830220003 87 185 2.0 6.0 0.00 0.00 0.00 26 1013.0
20260830214503 86 202 2.0 5.0 0.00 0.00 0.00 28 1013.3
20260830213004 87 143 2.0 5.0 0.00 0.00 0.00 27 1013.4
20260830211503 87 124 1.0 4.0 0.00 0.00 0.00 28 1013.5
20260830210002 85 152 2.0 6.0 0.00 0.00 0.00 28 1013.6
20260830204503 85 339 1.0 4.0 0.00 0.00 0.00 28 1013.6
20260830203003 85 124 1.0 3.0 0.00 0.00 0.00 29 1013.7
20260830201502 84 148 3.0 5.0 0.00 0.00 0.00 29 1013.8
20260830200002 83 143 1.0 4.0 0.00 0.00 0.00 29 1013.9
20260830194503 82 143 1.0 5.0 0.00 0.00 0.00 30 1013.9
20260830193006 82 201 2.0 4.0 0.00 0.00 0.00 31 1013.9
20260830191507 81 233 2.0 5.0 0.00 0.00 0.00 32 1014.2
20260830190002 80 261 1.0 4.0 0.00 0.00 0.00 32 1014.2
20260830184502 80 291 2.0 6.0 0.00 0.00 0.00 33 1014.2
20260830183002 79 87 2.0 7.0 0.00 0.00 0.00 34 1014.4
20260830181503 79 132 1.0 5.0 0.00 0.00 0.00 33 1014.4
20260830180002 78 208 1.0 3.0 0.00 0.00 0.00 34 1014.4
20260830174502 77 176 1.0 4.0 0.00 0.00 0.00 34 1014.5
20260830173002 76 175 2.0 5.0 0.00 0.00 0.00 35 1014.6
20260830171503 75 249 1.0 4.0 0.00 0.00 0.00 36 1014.6
20260830170003 75 188 1.0 4.0 0.00 0.00 0.00 36 1014.5
20260830164624 73 213 0.0 2.0 0.00 0.00 0.00 38 1014.4
20260830163005 73 162 1.0 3.0 0.00 0.00 0.00 38 1014.4
20260830161502 71 247 1.0 3.0 0.00 0.00 0.00 40 1014.4
20260830160002 70 152 1.0 2.0 0.00 0.00 0.00 40 1014.4
20260830154503 69 228 1.0 2.0 0.00 0.00 0.00 41 1014.4
20260830153002 67 116 0.0 2.0 0.00 0.00 0.00 46 1014.4
20260830151504 63 49 0.0 1.0 0.00 0.00 0.00 55 1014.5
20260830150002 59 49 0.0 1.0 0.00 0.00 0.00 62 1014.5
20260830144503 55 49 0.0 1.0 0.00 0.00 0.00 66 1014.3
20260830143003 53 49 0.0 1.0 0.00 0.00 0.00 69 1014.3
20260830141507 52 49 0.0 2.0 0.00 0.00 0.00 71 1014.1
20260830140003 51 49 0.0 1.0 0.00 0.00 0.00 70 1013.9
20260830134503 52 49 0.0 0.0 0.00 0.00 0.00 69 1013.8
20260830133111 52 49 0.0 1.0 0.00 0.00 0.00 69 1013.7
20260830133003 52 49 0.0 1.0 0.00 0.00 0.00 69 1013.7
20260830131503 52 49 0.0 0.0 0.00 0.00 0.00 67 1013.6
20260830130002 53 49 0.0 0.0 0.00 0.00 0.00 66 1013.5
20260830124502 53 49 0.0 2.0 0.00 0.00 0.00 66 1013.2
20260830123008 53 39 0.0 2.0 0.00 0.00 0.00 66 1013.1
20260830121605 53 32 0.0 1.0 0.00 0.00 0.00 65 1013.0
20260830120005 54 32 0.0 2.0 0.00 0.00 0.00 64 1013.1
20260830114506 54 32 1.0 2.0 0.00 0.00 0.00 64 1013.1
20260830113002 55 345 0.0 1.0 0.00 0.00 0.00 61 1013.0
20260830111503 56 345 0.0 1.0 0.00 0.00 0.00 60 1013.0
20260830110002 56 345 0.0 1.0 0.00 0.00 0.00 59 1012.9
20260830104502 57 345 0.0 0.0 0.00 0.00 0.00 57 1013.0
20260830101613 59 345 0.0 1.0 0.00 0.00 0.00 54 1013.1
20260830100059 60 345 0.0 0.0 0.00 0.00 0.00 52 1012.9
20260830100003 60 345 0.0 0.0 0.00 0.00 0.00 51 1012.9
20260830094508 61 345 0.0 1.0 0.00 0.00 0.00 49 1013.0
20260830093003 62 345 0.0 1.0 0.00 0.00 0.00 47 1012.8
20260830091503 63 35 0.0 4.0 0.00 0.00 0.00 45 1012.8
20260830090001 62 51 0.0 2.0 0.00 0.00 0.00 46 1012.8
20260830084602 62 25 0.0 2.0 0.00 0.00 0.00 47 1012.9
20260830083003 62 28 0.0 2.0 0.00 0.00 0.00 47 1013.1
20260830081602 62 352 0.0 2.0 0.00 0.00 0.00 49 1013.0
20260830080003 62 349 0.0 2.0 0.00 0.00 0.00 49 1013.1
20260830073002 63 35 0.0 3.0 0.00 0.00 0.00 48 1013.2
20260830071503 62 16 0.0 1.0 0.00 0.00 0.00 49 1013.1
20260830070005 62 3 0.0 2.0 0.00 0.00 0.00 49 1013.1
20260830064502 63 321 0.0 1.0 0.00 0.00 0.00 50 1013.2
20260830063002 64 321 0.0 1.0 0.00 0.00 0.00 48 1013.3
20260830061503 64 321 0.0 2.0 0.00 0.00 0.00 48 1013.3
20260830060004 64 348 0.0 1.0 0.00 0.00 0.00 48 1013.3
20260830054608 64 348 0.0 2.0 0.00 0.00 0.00 48 1013.4
20260830053002 65 25 0.0 1.0 0.00 0.00 0.00 48 1013.5
20260830051502 65 45 0.0 2.0 0.00 0.00 0.00 48 1013.3
20260830050003 66 72 0.0 1.0 0.00 0.00 0.00 46 1013.4
20260830044504 67 72 0.0 1.0 0.00 0.00 0.00 44 1013.4
20260830043002 68 135 0.0 1.0 0.00 0.00 0.00 43 1013.3
20260830041502 69 135 0.0 1.0 0.00 0.00 0.00 41 1013.3
20260830040106 70 135 0.0 1.0 0.00 0.00 0.00 39 1013.0
20260830034502 72 135 0.0 1.0 0.00 0.00 0.00 37 1012.9
20260830033002 73 135 0.0 1.0 0.00 0.00 0.00 35 1012.7
20260830031503 75 179 0.0 1.0 0.00 0.00 0.00 32 1012.6
20260830030003 77 179 0.0 1.0 0.00 0.00 0.00 30 1012.5
20260830024503 78 179 0.0 1.0 0.00 0.00 0.00 28 1012.3
20260830023011 79 177 1.0 2.0 0.00 0.00 0.00 26 1012.3
20260830021503 81 165 0.0 2.0 0.00 0.00 0.00 24 1012.6
20260830014505 83 179 1.0 3.0 0.00 0.00 0.00 22 1012.6
20260830013002 84 38 1.0 5.0 0.00 0.00 0.00 23 1012.5
20260830011505 84 140 1.0 3.0 0.00 0.00 0.00 22 1012.4